Weather in Rakhiv

Ukraine / Zakarpattia District     48°03′13″N   24°12′13″E
temp.,
°C
wind,
m/s
gust,
m/s
humid.,
%
clouds,
%
prec.,
mm/h
press.,
hPa
HPBL,
m
9 may, sun
sun900:00−1e11925 0.0 102510
03:00−1e119374 0.0 102610
06:00+1e118659 0.0 102616
09:00+6sw226389 0.0 1026614
12:00+10wsw23457 0.0 10251539
15:00+12wsw23443 0.0 10241539
18:00+11wsw22505 0.0 10231177
21:00+5e118029 0.0 102510
10 may, mon
mon1000:00+4e21825 0.0 102613
03:00+3e22795 0.0 102516
06:00+3e22745 0.0 102414
09:00+12s11495 0.0 1022277
12:00+17sw22405 0.0 1021817
15:00+19sw22392 0.0 10201176
18:00+18wsw22480 0.0 1019821
21:00+10e21810 0.0 102010
11 may, tue
tue1100:00+9e21821 0.0 102013
03:00+8e22810 0.0 102013
06:00+7ene22770 0.0 101915
09:00+16wsw01533 0.0 1017280
12:00+20wsw23413 0.0 10151475
15:00+21wsw23428 0.0 10131742
18:00+20w115496 0.0 1012859
21:00+13ene32730 0.0 101339
12 may, wed
wed1200:00+9ene338321 0.0 101446
03:00+10ene237770 0.0 101180
06:00+7ene22862 0.0 101142
09:00+14ne22540 0.0 1008440
12:00+19e11371 0.0 10061582
15:00+20wsw113667 0.0 10042409
18:00+15ene226920 0.1 1004244
21:00+11ne2388100 0.5 100568
13 may, thu
thu1300:00+9e1193100 0.3 100537
03:00+9ssw26100100 3.6 1004301
06:00+9w12100100 5.8 1004143
09:00+9ssw2394100 7.4 1005352
12:00+9wsw2295100 1.3 1005285
15:00+11sw2389100 2.7 1005649
18:00+10ssw2391100 1.4 1006406
21:00+8ssw1298100 2.4 1007113